Location: *
(44.3526°S, 44.9014°W)
Time: 23:41:39
(UTC+00:00)

Cosmos 468 Rocket - Pass Details

Date: 13 May 2025
Orbit: 740 x 775 km, 74.0° (Epoch: 14 June)

Event Time Altitude Azimuth Distance (km) Brightness Sun altitude
Rises 20:15:09 0° 198° (SSW) 3,228 7.2 -5.9°
Reaches altitude 10° 20:17:36 10° 192° (SSW) 2,301 6.4 -6.3°
Maximum altitude 20:22:42 54° 115° (ESE) 928 4.1 -7.2°
Drops below altitude 10° 20:27:48 10° 37° (NE) 2,295 6.3 -8.0°
Sets 20:30:13 0° 32° (NNE) 3,218 7.1 -8.5°
